Weather History for Yuma MCAS, AZ

Change the Weather History Date:

Monday, June 18, 2012

  Actual Average Record
Temperature  
Mean Temperature 97 °F 90 °F  
Max Temperature 115 °F 104 °F 116 °F (1989)
Min Temperature 78 °F 75 °F 59 °F (1911)
Degree Days  
Heating Degree Days 0 0  
Month to date heating degree days 0 0  
Since 1 June heating degree days 0 0  
Since 1 July heating degree days 697 686  
Cooling Degree Days 32 25  
Month to date cooling degree days 429 405  
Year to date cooling degree days 1392 1317  
Since 1 June cooling degree days 429 405  
Growing Degree Days 46 (Base 50)    
Moisture  
Dew Point 31 °F    
Average Humidity 17    
Maximum Humidity 30    
Minimum Humidity 4    
Precipitation  
Precipitation 0.00 in 0.00 in 0.10 in (1988)
Month to date precipitation 0.00 0.01  
Year to date precipitation 0.09 1.33  
Sea Level Pressure  
Sea Level Pressure 29.67 in    
Wind  
Wind Speed 10 mph (WNW)    
Max Wind Speed 25 mph    
Max Gust Speed 33 mph    
Visibility 10 miles    
Events      
T = Trace of Precipitation, MM = Missing Value Source: NWS Daily Summary

Daily Weather History Graph

Daily Weather History Graph

Search for Another Location

Airport:

Trip Planner

Search our weather history database for the weather conditions in past years. The results will help you decide how hot, cold, wet, or windy it might be!

Date:

Astronomy

Jun. 18, 2012 Rise Set
Actual Time 5:30 AM MST 7:48 PM MST
Civil Twilight 5:02 AM MST 8:17 PM MST
Nautical Twilight 4:27 AM MST 8:52 PM MST
Astronomical Twilight 3:49 AM MST 9:30 PM MST
Moon 4:46 AM MST (6/18) 7:12 PM MST (6/18)
Length of Visible Light 15h 15m
Length of Day
14h 18m
Waning Crescent, 1% of the Moon is Illuminated
Jun 18
Waning Crescent
Jun 19
New
Jun 26
First Quarter
Jul 3
Full
Jul 10
Last Quarter

Hourly Weather History & Observations

Time (MST) Temp. Dew Point Humidity Pressure Visibility Wind Dir Wind Speed Gust Speed Precip Events Conditions
12:55 AM 87.1 °F 43.0 °F 21% 29.70 in 10.0 mi Calm Calm - N/A   Clear
1:55 AM 84.9 °F 44.1 °F 24% 29.70 in 10.0 mi SSW 3.5 mph - N/A   Clear
2:55 AM 80.1 °F 46.9 °F 31% 29.69 in 10.0 mi South 5.8 mph - N/A   Clear
3:55 AM 81.0 °F 44.1 °F 27% 29.69 in 10.0 mi SSW 3.5 mph - N/A   Clear
4:55 AM 80.1 °F 44.1 °F 28% 29.70 in 10.0 mi Calm Calm - N/A   Clear
5:55 AM 79.0 °F 45.0 °F 30% 29.70 in 10.0 mi Calm Calm - N/A   Clear
6:55 AM 82.9 °F 44.1 °F 25% 29.71 in 10.0 mi SSW 3.5 mph - N/A   Clear
7:55 AM 93.0 °F 39.0 °F 15% 29.72 in 10.0 mi WNW 5.8 mph - N/A   Clear
8:55 AM 98.1 °F 32.0 °F 10% 29.73 in 10.0 mi NW 8.1 mph - N/A   Clear
9:55 AM 102.0 °F 25.0 °F 7% 29.73 in 10.0 mi WNW 11.5 mph - N/A   Clear
10:55 AM 107.6 °F 24.8 °F 5% 29.72 in 10.0 mi WNW 10.4 mph - N/A   Partly Cloudy
11:55 AM 109.4 °F 15.8 °F 4% 29.71 in 10.0 mi WNW 11.5 mph - N/A   Partly Cloudy
12:55 PM 111.0 °F 21.0 °F 4% 29.69 in 10.0 mi NW 11.5 mph - N/A   Clear
1:55 PM 113.0 °F 25.0 °F 5% 29.67 in 10.0 mi WNW 16.1 mph - N/A   Clear
2:55 PM 113.0 °F 25.0 °F 5% 29.64 in 10.0 mi WNW 13.8 mph 25.3 mph N/A   Clear
3:55 PM 113.0 °F 27.0 °F 5% 29.61 in 10.0 mi West 17.3 mph 21.9 mph N/A   Clear
4:55 PM 113.0 °F 24.1 °F 5% 29.60 in 9.0 mi WNW 19.6 mph 31.1 mph N/A   Clear
5:55 PM 109.9 °F 28.9 °F 6% 29.59 in 9.0 mi WNW 24.2 mph 31.1 mph N/A   Clear
6:55 PM 107.1 °F 28.9 °F 7% 29.59 in 7.0 mi WNW 17.3 mph 26.5 mph N/A   Clear
7:55 PM 102.0 °F 30.0 °F 8% 29.60 in 7.0 mi NW 16.1 mph 21.9 mph N/A   Clear
8:55 PM 99.0 °F 23.0 °F 7% 29.61 in 10.0 mi NW 13.8 mph 23.0 mph N/A   Clear
9:55 PM 97.0 °F 16.0 °F 5% 29.63 in 10.0 mi NW 15.0 mph 25.3 mph N/A   Clear
10:55 PM 93.0 °F 19.9 °F 7% 29.65 in 10.0 mi WNW 11.5 mph - N/A   Clear
11:55 PM 89.1 °F 23.0 °F 9% 29.65 in 10.0 mi West 4.6 mph - N/A   Clear